sat.trackr.live / text

‹ back to catalog

STARLINK-5875

NORAD 57221 · 2023-094D

PAYLOAD ACTIVE UNKNOWN

§ Identity

Operator
Country
US
Launch date
2023-07-07
Launch site
AFWTR
Launch vehicle
Mass (kg)
RCS (m²)

Purposes: comms

External: N2YO · Heavens-Above · Gunter

§ Orbital elements

Epoch: 2026-05-25T04:00:03.998880Z

Period
92.91 min
Inclination
43.0005°
Eccentricity
0.0002296
Mean motion
15.49911665 rev/d
Perigee alt
415.4 km
Apogee alt
418.5 km
Semi-major
6,795.1 km
B*
2.3007e-2
RAAN
320.8110°
Arg perigee
266.9342°
Mean anomaly
248.1463°
Rev number
589

§ Raw data

STARLINK-58751 57221U 23094D   26145.16671295  .01453613  00000+0  23007-1 0  99952 57221  43.0005 320.8110 0002296 266.9342 248.1463 15.49911665  5894

JSON: /api/v1/satellites/57221 · /tle

For live sub-satellite position, see the globe view (requires WebGL).

§ Visibility from observer

Set your observer location to see the next 7 days of passes ≥ 10°. The values pass through the URL so the page stays shareable.

No JS? Fill the form by hand. The geolocation button needs JavaScript.